sat.trackr.live / text

‹ back to catalog

STARLINK-6239

NORAD 56423 · 2023-061BB

PAYLOAD ACTIVE UNKNOWN

§ Identity

Operator
Country
US
Launch date
2023-05-04
Launch site
AFETR
Launch vehicle
Mass (kg)
RCS (m²)

Purposes: comms

External: N2YO · Heavens-Above · Gunter

§ Orbital elements

Epoch: 2026-05-24T08:34:27.626880Z

Period
94.32 min
Inclination
43.0007°
Eccentricity
0.0000744
Mean motion
15.26736042 rev/d
Perigee alt
485.1 km
Apogee alt
486.1 km
Semi-major
6,863.7 km
B*
-1.3520e-5
RAAN
112.0883°
Arg perigee
273.2304°
Mean anomaly
86.8462°
Rev number
16,853

§ Raw data

STARLINK-62391 56423U 23061BB  26144.35726420 -.00000622  00000+0 -13520-4 0  99942 56423  43.0007 112.0883 0000744 273.2304  86.8462 15.26736042168538

JSON: /api/v1/satellites/56423 · /tle

For live sub-satellite position, see the globe view (requires WebGL).

§ Visibility from observer

Set your observer location to see the next 7 days of passes ≥ 10°. The values pass through the URL so the page stays shareable.

No JS? Fill the form by hand. The geolocation button needs JavaScript.